TIMED (26998 NORAD) Tracking and Keplerian Element Data

This shows tracking and keplerian element data for the satellite.

Feedback or suggestion? Click here.




ElementValue
Catalog26998
NameTIMED
Epoch Orbit90514
Epoch Day231.22528576
Epoch Year2018
RAAN183.3009
Inclination74.0723
Eccentricity4.46E-05
Argument of Perigee258.725
Mean Anonmoly101.388
Mean Motion14.88039319
Decay Rate9.8E-07
L11 26998U 01055B 18231.22528576 .00000098 00000-0 14711-4 0 9992
L22 26998 74.0723 183.3009 0000446 258.7250 101.3880 14.88039319905142

Live tracking and technical data element details for TIMED (NORAD 26998). TIMED can be tracked NOW for your location showing map with azimuth and elevation plus other details from your city location.

Track the satellite on the map from your city or location and see movement details for azimuth, elevation, latitude, longitude, range, height, and movement on the map or in text.







IsCatalogInMostPopularTable: catalog: 26998, numindb: 35
Update: records affected: 1



GetName: 26998 TIMED

Hit Count: updated at: Mon, 20 Aug 2018 00:45:36 GMT